Wayne, NE

10:26 AM CDT on July 26, 2016 (GMT -0500)
Wayne Municipal

Weather History for KLCG - October, 2012

Change the Weather History Date:

Monday, October 8, 2012

  Actual Average (KOFK) Record (KOFK)
Temperature  
Mean Temperature 59 °F 54 °F  
Max Temperature 75 °F 67 °F 92 °F (2010)
Min Temperature 43 °F 41 °F 13 °F (2000)
Degree Days  
Heating Degree Days 6 11  
Month to date heating degree days 81  
Since 1 July heating degree days 223  
Cooling Degree Days 0 1  
Month to date cooling degree days 8  
Year to date cooling degree days 914  
Growing Degree Days 9 (Base 50)    
Moisture  
Dew Point 31 °F    
Average Humidity 42    
Maximum Humidity 62    
Minimum Humidity 17    
Precipitation  
Precipitation 0.00 in 0.07 in 1.94 in (1982)
Month to date precipitation 0.64  
Year to date precipitation 23.86  
Snow  
Snow 0.00 in 0.00 in - ()
Month to date snowfall 0.0  
Since 1 July snowfall T  
Snow Depth -    
Sea Level Pressure  
Sea Level Pressure 29.82 in    
Wind  
Wind Speed 12 mph (WSW)    
Max Wind Speed 21 mph    
Max Gust Speed 29 mph    
Visibility 10 miles    
Events Rain    
T = Trace of Precipitation, MM = Missing Value Source: NWS Daily Summary

Daily Weather History Graph

Daily Weather History Graph

Search for Another Location

Airport or City:

Trip Planner

Search our weather history database for the weather conditions in past years. The results will help you decide how hot, cold, wet, or windy it might be!

Date:

Astronomy

Oct. 08, 2012 Rise Set
Actual Time 7:33 AM CDT 6:56 PM CDT
Civil Twilight 7:05 AM CDT 7:24 PM CDT
Nautical Twilight 6:32 AM CDT 7:57 PM CDT
Astronomical Twilight 6:00 AM CDT 8:29 PM CDT
Moon 12:06 AM CDT (10/8) 2:53 PM CDT (10/8)
Length of Visible Light 12h 19m
Length of Day
11h 23m
Last Quarter, 46% of the Moon is Illuminated
Oct 8
Last Quarter
Oct 15
New
Oct 21
First Quarter
Oct 29
Full
Nov 6
Last Quarter

Hourly Weather History & Observations

Time (CDT) Temp. Windchill Dew Point Humidity Pressure Visibility Wind Dir Wind Speed Gust Speed Precip Events Conditions
12:15 AM 43.7 °F 37.3 °F 28.4 °F 55% 29.93 in 10.0 mi SW 12.7 mph - N/A   Clear
12:35 AM 43.7 °F 37.3 °F 28.9 °F 56% 29.93 in 10.0 mi SW 12.7 mph - N/A   Clear
12:55 AM 43.7 °F 37.3 °F 29.3 °F 57% 29.92 in 10.0 mi SW 12.7 mph - N/A   Clear
1:15 AM 43.3 °F 36.5 °F 29.7 °F 59% 29.92 in 10.0 mi SW 13.8 mph - N/A   Clear
1:35 AM 43.5 °F 36.7 °F 30.0 °F 59% 29.92 in 10.0 mi SW 13.8 mph - N/A   Clear
1:55 AM 43.7 °F 36.9 °F 30.7 °F 60% 29.92 in 10.0 mi SW 13.8 mph - N/A   Clear
2:15 AM 43.9 °F 37.2 °F 31.1 °F 61% 29.92 in 10.0 mi SW 13.8 mph - N/A   Clear
2:35 AM 43.7 °F 37.3 °F 31.3 °F 62% 29.91 in 10.0 mi SW 12.7 mph - N/A   Clear
2:55 AM 43.7 °F 37.7 °F 31.1 °F 61% 29.91 in 10.0 mi SW 11.5 mph - N/A   Clear
3:15 AM 43.5 °F 37.1 °F 31.1 °F 62% 29.90 in 10.0 mi SW 12.7 mph - N/A   Clear
3:35 AM 43.2 °F 36.6 °F 31.1 °F 62% 29.89 in 10.0 mi SW 12.7 mph - N/A   Clear
3:55 AM 43.3 °F 37.2 °F 30.9 °F 62% 29.89 in 10.0 mi SW 11.5 mph - N/A   Clear
4:15 AM 43.0 °F 36.8 °F 30.9 °F 62% 29.89 in 10.0 mi SW 11.5 mph - N/A   Clear
4:35 AM 43.0 °F 36.8 °F 30.4 °F 61% 29.89 in 10.0 mi SW 11.5 mph - N/A   Clear
4:55 AM 43.2 °F 37.9 °F 30.2 °F 60% 29.88 in 10.0 mi SW 9.2 mph - N/A   Clear
5:15 AM 43.9 °F 37.9 °F 29.8 °F 58% 29.88 in 10.0 mi SW 11.5 mph - N/A   Clear
5:35 AM 45.0 °F 39.3 °F 29.5 °F 55% 29.88 in 10.0 mi SW 11.5 mph - N/A   Clear
5:55 AM 45.5 °F 39.6 °F 29.3 °F 53% 29.88 in 10.0 mi SW 12.7 mph - N/A   Scattered Clouds
6:15 AM 45.5 °F 39.9 °F 29.3 °F 53% 29.87 in 10.0 mi SW 11.5 mph - N/A   Mostly Cloudy
6:35 AM 45.7 °F 39.8 °F 29.3 °F 53% 29.86 in 10.0 mi WSW 12.7 mph - N/A   Scattered Clouds
6:55 AM 45.5 °F 40.3 °F 29.1 °F 53% 29.86 in 10.0 mi SW 10.4 mph - N/A   Clear
7:15 AM 45.5 °F 40.3 °F 29.3 °F 53% 29.86 in 10.0 mi SW 10.4 mph - N/A   Clear
7:35 AM 45.7 °F 40.2 °F 28.9 °F 52% 29.85 in 10.0 mi SW 11.5 mph - N/A   Scattered Clouds
7:55 AM 45.7 °F 40.2 °F 28.9 °F 52% 29.85 in 10.0 mi SSW 11.5 mph - N/A   Scattered Clouds
8:15 AM 46.0 °F 40.6 °F 28.8 °F 51% 29.85 in 10.0 mi SW 11.5 mph - N/A   Scattered Clouds
8:35 AM 46.8 °F - 28.6 °F 49% 29.85 in 10.0 mi SW 12.7 mph - N/A   Scattered Clouds
8:55 AM 48.2 °F - 28.8 °F 47% 29.85 in 10.0 mi SW 10.4 mph - N/A   Clear
9:15 AM 48.6 °F - 28.4 °F 46% 29.85 in 10.0 mi SW 11.5 mph - N/A   Scattered Clouds
9:35 AM 49.8 °F - 28.4 °F 44% 29.84 in 10.0 mi SW 12.7 mph - N/A   Scattered Clouds
9:55 AM 52.3 °F - 27.9 °F 39% 29.84 in 10.0 mi SW 13.8 mph - N/A   Scattered Clouds
10:15 AM 53.1 °F - 27.9 °F 38% 29.84 in 10.0 mi SW 12.7 mph - N/A   Scattered Clouds
10:35 AM 54.7 °F - 28.6 °F 37% 29.84 in 10.0 mi SW 12.7 mph - N/A   Clear
10:55 AM 57.2 °F - 28.6 °F 34% 29.83 in 10.0 mi SSW 16.1 mph - N/A   Clear
11:15 AM 60.3 °F - 28.9 °F 31% 29.82 in 10.0 mi SW 15.0 mph 20.7 mph N/A   Clear
11:35 AM 62.6 °F - 28.9 °F 28% 29.81 in 10.0 mi SSW 17.3 mph - N/A   Clear
11:55 AM 65.1 °F - 28.2 °F 25% 29.81 in 10.0 mi SW 20.7 mph - N/A   Clear
12:15 PM 65.8 °F - 27.7 °F 24% 29.80 in 10.0 mi SW 20.7 mph 25.3 mph N/A   Clear
12:55 PM 69.8 °F - 25.5 °F 19% 29.78 in 10.0 mi SW 20.7 mph 26.5 mph N/A   Clear
1:15 PM 70.9 °F - 26.1 °F 19% 29.77 in 10.0 mi SW 19.6 mph 25.3 mph N/A   Scattered Clouds
1:35 PM 71.8 °F - 25.9 °F 18% 29.76 in 10.0 mi WSW 16.1 mph 26.5 mph N/A   Mostly Cloudy
1:55 PM 73.0 °F - 26.2 °F 18% 29.74 in 10.0 mi SW 19.6 mph 28.8 mph N/A   Scattered Clouds
2:15 PM 73.6 °F - 26.6 °F 17% 29.74 in 10.0 mi WSW 15.0 mph 23.0 mph N/A   Clear
2:35 PM 74.1 °F - 27.3 °F 18% 29.74 in 10.0 mi WSW 15.0 mph 20.7 mph N/A   Scattered Clouds
2:55 PM 75.2 °F - 28.9 °F 18% 29.73 in 10.0 mi WSW 13.8 mph 20.7 mph N/A   Scattered Clouds
3:15 PM 74.1 °F - 28.6 °F 19% 29.73 in 10.0 mi West 12.7 mph 21.9 mph N/A   Scattered Clouds
3:35 PM 73.4 °F - 28.4 °F 19% 29.72 in 10.0 mi WSW 15.0 mph 19.6 mph N/A   Mostly Cloudy
3:55 PM 72.7 °F - 28.9 °F 20% 29.72 in 10.0 mi West 10.4 mph - N/A   Overcast
4:15 PM 73.4 °F - 29.3 °F 20% 29.72 in 10.0 mi NW 5.8 mph - N/A   Overcast
4:35 PM 72.5 °F - 29.5 °F 20% 29.71 in 10.0 mi NW 10.4 mph - N/A   Overcast
4:55 PM 72.5 °F - 30.9 °F 22% 29.72 in 10.0 mi NW 10.4 mph - N/A   Overcast
5:15 PM 71.1 °F - 33.1 °F 25% 29.73 in 10.0 mi NNW 11.5 mph - N/A   Overcast
5:35 PM 69.6 °F - 35.2 °F 28% 29.73 in 10.0 mi NNW 9.2 mph - N/A Rain Light Rain
5:55 PM 70.0 °F - 35.1 °F 28% 29.73 in 10.0 mi NW 8.1 mph - N/A   Overcast
6:15 PM 69.3 °F - 36.1 °F 30% 29.74 in 10.0 mi NNW 9.2 mph - N/A   Overcast
6:35 PM 68.4 °F - 36.5 °F 31% 29.74 in 10.0 mi NNW 8.1 mph - N/A   Overcast
6:55 PM 67.1 °F - 36.3 °F 32% 29.75 in 7.0 mi NNW 5.8 mph - N/A   Overcast
7:35 PM 64.6 °F - 35.8 °F 34% 29.77 in 7.0 mi Calm Calm - N/A   Overcast
7:55 PM 63.0 °F - 35.6 °F 36% 29.77 in 7.0 mi Calm Calm - N/A   Overcast
8:15 PM 63.7 °F - 36.5 °F 36% 29.78 in 7.0 mi NNW 4.6 mph - N/A   Overcast
8:35 PM 62.6 °F - 36.5 °F 38% 29.79 in 10.0 mi North 5.8 mph - N/A   Overcast
8:55 PM 63.5 °F - 39.0 °F 41% 29.80 in 10.0 mi North 10.4 mph 17.3 mph N/A   Overcast
9:15 PM 62.6 °F - 39.4 °F 42% 29.81 in 10.0 mi North 11.5 mph - N/A   Mostly Cloudy
9:35 PM 61.7 °F - 40.1 °F 45% 29.81 in 10.0 mi North 10.4 mph - N/A   Mostly Cloudy
9:55 PM 61.0 °F - 41.0 °F 48% 29.81 in 10.0 mi North 6.9 mph - N/A   Overcast
10:15 PM 60.1 °F - 41.0 °F 49% 29.81 in 10.0 mi North 4.6 mph - N/A   Overcast
10:55 PM 57.9 °F - 40.3 °F 52% 29.82 in 10.0 mi North 6.9 mph - N/A   Overcast
11:15 PM 57.4 °F - 40.5 °F 53% 29.81 in 10.0 mi North 5.8 mph - N/A   Overcast
11:35 PM 56.8 °F - 41.2 °F 56% 29.82 in 10.0 mi Calm Calm - N/A   Overcast
11:55 PM 55.4 °F - 40.8 °F 58% 29.82 in 10.0 mi Calm Calm - N/A   Overcast